Weather in Psauchye-Dakhe

Russia / Karachay-Cherkess Republic     44˚12′40″N   41˚52′44″E
temp.,
°C
wind,
m/s
gust,
m/s
humid.,
%
clouds,
%
prec.,
mm/h
press.,
hPa
HPBL,
m
17 january, sun
sun1700:00−1˚e71186100 0.0 1012616
03:00−1˚e71286100 0.1 1009568
06:00−2˚e81383100 0.0 1006555
09:00−1˚e71381100 0.0 1004531
12:00+1˚ese81376100 0.0 1002512
15:00+1˚e81279100 0.0 1000449
18:00−1˚ese5988100 0.0 1002249
21:00−1˚e4693100 0.0 1002210
18 january, mon
mon1800:00−1˚sw1293100 0.0 1004109
03:00−1˚se1297100 1.8 1006119
06:00w1397100 2.9 1008198
09:00−4˚wnw4893100 3.4 1011474
12:00−4˚wnw5885100 0.1 1013619
15:00−4˚wnw4785100 0.1 1014634
18:00−5˚wnw3692100 0.1 1016386
21:00−5˚wsw2489100 0.1 1017171
19 january, tue
tue1900:00−6˚wnw2389100 0.0 101993
03:00−7˚w2396100 0.1 1020122
06:00−7˚s2389100 0.3 102059
09:00−6˚sw247582 0.3 1021118
12:00−3˚nnw236817 0.0 1020488
15:00−3˚nne127848 0.0 1018574
18:00−5˚sse128696 0.0 102129
21:00−6˚nw239698 0.3 1022231
20 january, wed
wed2000:00−7˚wsw1196100 0.2 102362
03:00−9˚wsw129199 0.3 102480
06:00−10˚ssw2284100 0.1 102556
09:00−9˚s237791 0.1 102692
12:00−5˚se227482 0.0 1024463
15:00−4˚ne116972 0.0 1024765
18:00−6˚nnw2396100 0.1 1027105
21:00−7˚w2793100 0.8 1029402
21 january, thu
thu2100:00−8˚ssw468392 0.0 1029136
03:00−9˚ssw347346 0.0 103072
06:00−7˚ssw226967 0.0 103025
09:00−5˚s127381 0.0 103158
12:00−1˚ssw236396 0.0 1029239
15:00nw146997 0.0 1029477
18:00−3˚ese118099 0.0 103221
21:00−4˚s237897 0.0 103322